sat.trackr.live / text

‹ back to catalog

STARLINK-11285 [DTC]

NORAD 61578 · 2024-187E

PAYLOAD ACTIVE UNKNOWN

§ Identity

Operator
Country
US
Launch date
2024-10-18
Launch site
AFETR
Launch vehicle
Mass (kg)
RCS (m²)

Purposes: comms

External: N2YO · Heavens-Above · Gunter

§ Orbital elements

Epoch: 2026-05-25T04:00:03.998880Z

Period
91.73 min
Inclination
53.1568°
Eccentricity
0.0001030
Mean motion
15.69777769 rev/d
Perigee alt
358.8 km
Apogee alt
360.2 km
Semi-major
6,737.7 km
B*
-1.2455e-3
RAAN
279.0444°
Arg perigee
92.0551°
Mean anomaly
305.1994°
Rev number
602

§ Raw data

STARLINK-11285 [DTC]1 61578U 24187E   26145.16671295 -.00149218  00000+0 -12455-2 0  99992 61578  53.1568 279.0444 0001030  92.0551 305.1994 15.69777769  6026

JSON: /api/v1/satellites/61578 · /tle

For live sub-satellite position, see the globe view (requires WebGL).

§ Visibility from observer

Set your observer location to see the next 7 days of passes ≥ 10°. The values pass through the URL so the page stays shareable.

No JS? Fill the form by hand. The geolocation button needs JavaScript.